Location: Catstown
(52.4386°N, 7.2633°W)
Time: 01:54:25
(UTC+00:00)

Cosmos 1340 Rocket - Pass Details

Date: 18 September 2020
Orbit: 529 x 559 km, 81.2° (Epoch: 30 October)

Event Time Altitude Azimuth Distance (km) Brightness Sun altitude
Exits shadow 21:31:34 31° 20° (NNE) 979 4.2 -25.3°
Drops below altitude 10° 21:33:43 10° 16° (NNE) 1,821 5.8 -25.5°
Sets 21:35:55 0° 15° (NNE) 2,724 6.7 -25.8°
